Reflectivity
-20 -20 -20 -20 -20 -20 -20 -20 -15 7 -20 -20 -20 -20 -20 -20 -20 -20 -20 -20 -20 -20 13 2 15 -14 -20 -20 -20 -20 -13 -10 -20 -13 -15 -2 8 -14 -10 -20 -11 -7 4
-20 -20 -20 -20 -20 -20 -20 -20 -20 -18 -18 -3 -20 -20 -4 -1 -4 -20 -20 -20 -20 -20 6 -1 10 -16 -20 -20 -20 -20 -20 -20 -20 -20 -20 -20 -20 -20 -20 -20 -6 -16 10
-20 -20 -20 -20 -20 -20 -20 -20 -20 -20 3 -5 -9 -20 -6 8 7 -1 -20 -20 -20 -20 6 10 -11 -20 -20 -20 -20 -20 -20 -20 -20 -20 -20 -20 -20 -20 -20 -20 -20 -20 -20
-20 -20 -20 -20 -20 -20 -20 -20 -20 -20 -20 -5 -20 -0 -12 3 1 10 -20 -20 -14 6 15 3 -19 -20 -20 -20 -20 -20 -20 -20 -20 -20 -20 -20 -20 -20 -20 -20 -20 -20 -20
-20 -20 -20 -20 -20 -20 -20 -20 -20 -20 -20 -20 -4 13 -20 14 14 13 -20 6 -17 -14 15 2 10 -20 -20 -20 -20 -20 -20 -20 -20 -20 -20 -20 -20 -20 -20 -20 -20 -20 -20
-20 -20 10 1 -20 -20 -20 -20 -20 3 -20 -20 -20 -20 -20 -20 12 3 -20 7 -20 -16 -20 -1 10 -20 -20 -20 -20 -20 -20 -20 -20 -20 -20 -20 -20 -20 -20 -20 -20 -20 -20
-20 -20 35 -20 -20 -20 -19 -7 -10 -20 14 -20 -13 -18 -18 -20 5 7 -20 -9 -2 13 3 -20 3 -10 -20 -20 -20 -20 -20 -20 -20 -20 -20 -20 -20 -20 -20 -20 -20 -20 -20
-20 -20 28 10 -13 -20 -20 -4 -20 -20 23 -20 -20 1 -20 5 15 -3 -20 16 5 15 13 -17 -20 -9 -20 -20 -20 -20 -20 -20 -20 -20 -20 -20 -20 -20 -20 -20 -20 -20 -20
-9 23 20 -18 -15 27 24 1 -20 -20 -20 -20 -13 -17 -20 2 11 4 8 16 15 8 1 7 1 7 -20 -20 -20 -20 -20 -20 -20 -20 -20 -20 -20 -20 -20 -20 -20 -20 -20
1 30 -17 -20 -19 -20 -20 7 -1 -20 -20 -2 -20 -14 -13 19 8 3 4 18 16 6 -20 -20 -20 -20 -20 -20 -20 -20 -20 -20 -20 -20 -20 -20 -20 -20 -20 -20 -20 -20 -20
-6 5 29 32 11 -20 -15 -15 -20 -2 -20 -4 3 -8 19 -15 -16 3 -7 15 16 -7 -20 -20 -20 -20 -20 -20 -20 -20 -20 -20 -20 -20 -20 -20 -20 -20 -20 -20 -20 -20 -20
-20 -20 -1 11 28 24 12 6 -19 -12 11 -7 20 21 20 -6 -20 -6 10 14 8 -20 -20 -20 -20 -20 -20 -20 -20 -20 -20 -20 -20 -20 -20 -20 -20 -20 -20 -20 -20 -20 -20
-20 -20 -20 -20 -18 32 35 29 21 12 26 7 22 22 25 -11 -6 -18 -20 -14 -4 -20 -20 -20 -20 -20 -20 -20 -20 -20 -20 -20 -20 -20 -20 -20 -20 -20 -20 -20 -20 -20 -20
-20 -20 -20 -20 -20 21 38 32 26 25 -6 22 11 33 18 -20 -20 -20 -20 -20 -20 -20 -20 -20 -20 -20 -20 -20 -20 -20 -20 -20 -20 -20 -20 -20 -20 -20 -20 -20 -20 -20 -20
-20 -20 -20 -20 -20 26 37 33 26 27 12 15 -3 -10 28 2 -20 -20 -20 -20 -20 -20 -20 -20 -20 -20 -20 -20 -20 -20 -20 -20 -20 -20 -20 -14 -20 -20 -20 -20 -20 -20 -20
-18 -20 -20 -20 -20 8 28 19 30 14 10 -0 -13 -20 -14 7 -20 -20 -20 -20 -20 -20 -20 -20 -20 -20 -20 -20 -20 -20 -20 -20 -20 -20 -20 -1 -20 -20 -20 -20 -20 -14 -20
-20 -20 -20 -20 8 22 26 24 35 29 16 -20 -20 -20 -20 -18 -20 -20 -20 -20 -20 -20 -20 -20 -20 -20 -20 -20 -20 -20 -20 -20 -20 -20 -20 -20 -20 -20 -20 -20 -20 -20 -20
28 -10 -20 -20 -8 17 31 27 25 36 33 -8 -8 -19 -20 -20 -20 -20 -20 -20 -20 -20 -20 -20 -20 -20 -20 -20 -20 -17 -15 -9 -20 -20 2 -10 -20 -20 -20 -20 -20 -20 -20
-20 4 7 -19 -19 -1 14 16 31 39 38 37 13 10 -2 4 -20 -20 -20 -20 -20 -20 -20 -20 -20 -20 -20 -20 -20 -8 -20 -7 -20 -11 -20 -20 -20 -20 -20 -20 -20 -20 -20
-20 -8 10 8 1 15 22 10 29 30 31 32 24 -7 -12 -17 -20 -20 -20 -20 -20 -20 -20 -20 -20 -20 -20 -20 -20 -20 -2 15 -20 9 -6 -20 -6 -20 -20 -20 -20 -20 -20
-20 -20 6 17 11 17 23 12 23 24 29 35 38 20 -12 -5 -20 -20 -20 -20 -20 -20 -16 -19 -20 -20 -20 -20 -20 -20 -16 4 -20 -18 1 -20 -20 -20 -20 -20 -20 -20 -20
-20 -13 26 26 15 23 5 24 -2 28 36 41 37 37 37 26 3 -20 -19 -18 -20 -17 -20 -20 -7 4 -12 -12 -18 -19 4 10 -20 -20 -20 -20 -20 -20 -20 -20 -20 -20 -20
-20 11 12 5 25 17 20 16 20 15 27 35 26 34 37 39 27 27 28 7 -20 10 -5 9 14 7 -2 3 -10 -11 -1 -16 -20 -20 -20 -20 -20 -20 -20 -20 -20 -20 -20
-7 15 7 35 39 24 20 24 28 25 31 7 23 31 31 35 34 28 34 20 10 -0 -0 14 19 21 22 22 27 25 8 -5 -6 18 11 17 -1 -20 -20 -20 -20 -20 -20
1 15 25 25 40 34 36 38 37 26 23 13 21 18 33 25 25 22 29 29 29 31 30 20 -1 7 16 23 25 30 24 29 22 23 29 25 5 17 -16 -12 -5 -20 -20
4 19 33 34 34 30 36 40 36 34 16 9 25 29 29 24 29 29 25 18 24 5 -5 22 10 -14 -20 -20 -20 1 11 20 18 28 31 35 31 25 30 32 27 -10 -20
Wind_Speed
6 13 17 17 15 14 14 14 13 14 15 15 15 15 15 16 17 16 18 17 15 14 13 16 17 18 16 15 15 14 14 15 16 16 15 14 15 16 16 17 14 11 15
13 13 18 17 16 14 13 12 11 11 14 15 15 16 16 16 18 18 18 18 17 15 16 16 18 17 15 14 14 14 15 16 16 15 13 11 13 15 16 15 12 10 13
17 14 15 16 15 13 11 11 11 11 12 14 15 17 17 17 18 17 18 18 16 15 15 17 18 16 14 13 13 14 14 14 11 11 12 5 7 14 14 13 13 12 12
14 13 13 17 14 13 11 11 10 11 12 15 15 16 18 18 17 18 18 18 15 16 14 15 18 15 13 12 11 11 10 8 4 4 4 6 7 13 13 13 13 13 13
13 13 13 17 14 13 12 11 10 10 11 12 15 16 17 18 18 18 16 15 20 16 15 14 16 14 13 10 8 8 7 6 8 10 6 6 5 10 12 12 12 12 13
12 10 14 19 14 12 12 11 9 8 12 10 15 16 17 19 19 17 14 14 16 16 16 15 14 14 12 9 7 6 6 8 7 7 6 7 6 11 12 12 12 12 12
5 7 11 18 17 11 11 10 7 6 11 11 15 17 18 19 20 17 13 16 17 16 14 14 12 14 11 9 7 4 5 7 5 5 6 6 5 11 11 11 11 11 12
9 8 7 12 14 10 8 10 5 4 8 13 15 17 18 19 20 18 15 17 16 13 13 17 14 13 12 9 6 4 4 7 6 7 6 5 8 9 9 9 9 10 10
13 14 13 15 12 5 4 6 4 2 6 14 15 16 17 18 19 19 17 15 14 13 13 14 11 12 11 8 5 2 2 3 4 4 6 4 6 7 8 7 7 7 8
7 10 10 10 9 10 13 19 4 3 6 14 14 14 14 15 15 16 16 13 14 13 12 12 12 11 10 8 5 2 1 2 3 6 4 4 7 6 5 6 5 6 6
3 3 7 7 7 8 8 9 18 7 3 6 11 13 11 9 9 11 11 13 12 12 13 12 12 10 9 8 6 5 3 2 2 3 3 10 7 6 5 7 5 4 4
8 10 7 8 5 7 5 5 8 12 3 4 5 9 6 10 8 7 7 11 12 10 11 12 11 10 8 3 3 5 2 2 1 4 3 10 9 7 6 6 5 5 5
2 4 4 7 5 6 3 3 2 4 6 4 8 8 8 8 7 5 4 5 5 6 3 5 5 3 5 4 4 4 4 4 3 4 6 11 11 9 7 7 7 7 8
6 7 5 5 6 10 5 5 7 4 8 5 8 9 7 6 8 7 6 5 5 3 5 4 3 5 6 6 6 6 6 4 4 3 5 11 11 11 10 8 8 8 8
8 7 4 5 8 7 6 6 5 10 10 10 9 11 6 8 8 8 7 7 6 5 5 5 5 5 5 6 6 6 6 6 5 4 3 11 13 11 10 9 8 8 9
6 6 5 5 6 8 8 11 8 9 14 12 11 10 11 9 9 8 8 8 7 7 6 6 5 5 5 5 5 5 6 5 5 6 5 6 10 12 11 11 8 7 6
8 8 9 8 6 6 12 10 5 11 13 11 12 10 12 12 10 10 8 7 8 7 7 5 5 4 4 4 5 5 5 6 5 6 5 4 6 11 10 10 8 5 3
8 11 9 9 7 10 11 10 2 1 4 8 9 9 14 12 10 8 6 6 5 5 5 4 3 3 3 4 3 4 4 5 6 5 3 4 4 4 6 10 7 5 3
10 10 8 8 8 7 6 6 12 11 7 5 6 7 11 11 8 6 5 5 6 4 4 4 3 3 3 3 3 4 3 4 4 3 4 4 5 4 4 5 7 5 5
7 6 7 6 9 7 4 2 7 9 7 6 6 6 11 10 10 7 5 5 5 5 5 4 4 3 3 4 3 4 3 3 4 3 2 3 5 6 5 5 4 2 3
5 11 9 7 7 5 3 3 3 6 6 8 11 12 11 9 9 8 5 5 5 6 6 5 3 5 3 3 2 2 2 4 5 2 3 4 5 5 6 5 3 3 3
5 3 9 8 6 6 1 2 3 3 4 6 8 5 4 9 7 6 7 6 5 5 5 4 5 2 1 3 4 2 2 4 3 2 3 4 6 4 5 5 6 5 3
5 5 3 7 8 5 5 3 1 4 3 4 3 3 3 3 5 8 6 5 6 5 5 4 4 5 4 1 4 4 3 4 2 1 4 4 6 3 3 5 6 6 5
4 6 8 4 4 8 6 4 3 2 3 2 3 3 3 3 4 5 1 5 6 5 7 7 7 5 5 6 3 4 2 4 3 4 3 3 3 4 5 3 5 5 5
8 8 8 8 3 8 8 3 3 2 3 4 3 2 2 3 4 3 4 4 4 3 2 4 3 5 8 6 5 3 2 2 3 3 1 3 1 2 2 3 4 5 6
11 7 3 6 8 8 9 6 4 4 3 3 5 4 3 4 5 7 4 4 2 2 2 4 4 5 4 3 4 5 5 5 5 4 4 3 3 3 3 3 5 4 5
Wind_Direction
161 152 151 152 151 150 148 149 147 152 152 152 145 141 139 132 129 126 126 128 131 125 116 112 115 104 98 96 96 96 98 94 90 86 75 66 66 68 67 67 57 53 59
144 154 151 152 152 153 154 151 148 146 157 153 151 148 148 143 137 134 135 137 138 136 130 115 110 105 103 103 106 109 110 108 104 94 79 69 69 68 67 67 69 70 64
149 155 151 153 150 152 152 151 149 151 156 160 157 154 153 151 143 142 140 139 140 138 133 118 113 109 108 109 115 115 113 115 106 91 93 77 73 76 74 77 73 68 67
151 152 153 151 151 150 152 154 156 161 167 169 164 162 157 152 147 147 146 145 141 132 135 130 111 114 113 115 122 121 114 111 103 77 88 70 71 80 78 75 69 69 64
151 159 155 147 152 151 154 155 165 172 176 177 171 170 162 156 153 153 154 156 138 137 133 134 123 122 119 118 124 114 98 67 58 102 97 94 81 77 77 74 68 67 69
144 155 163 146 152 151 157 152 170 184 184 184 180 175 167 161 153 154 155 147 140 141 142 143 130 127 125 121 116 97 64 45 60 108 94 89 92 83 77 74 72 69 66
43 146 161 149 145 145 155 150 173 198 199 188 185 178 170 165 153 152 157 143 145 151 147 147 138 133 132 127 120 97 58 27 77 100 103 91 83 85 78 74 71 66 63
74 49 139 147 136 140 157 137 163 223 222 183 185 179 172 164 149 149 157 158 153 154 154 150 149 149 138 136 131 111 56 36 65 119 116 109 104 96 88 79 72 70 68
84 77 60 47 38 61 133 126 157 247 251 184 185 179 172 158 149 157 159 154 158 148 135 136 140 131 140 143 145 138 76 25 92 125 125 122 128 113 102 96 91 83 80
57 91 77 73 56 55 37 6 288 246 287 195 183 169 154 147 150 152 143 156 157 150 141 137 141 145 147 151 159 191 227 353 105 135 127 150 145 129 132 128 114 102 97
101 99 120 103 90 58 31 1 353 257 297 199 148 144 148 146 141 145 145 158 153 152 147 145 148 147 149 157 173 211 222 202 93 142 152 156 156 147 138 152 155 143 132
177 188 164 139 118 62 13 40 352 323 230 144 161 156 158 148 148 150 149 158 149 157 154 156 155 157 158 174 204 218 240 224 225 169 169 159 164 169 162 173 186 191 181
118 336 199 177 121 95 200 211 182 296 278 177 178 172 174 150 147 156 154 160 139 164 168 154 156 165 183 185 210 218 214 231 187 182 171 172 175 186 191 196 210 218 219
167 181 217 168 165 181 176 178 185 208 252 210 184 216 176 154 152 162 158 157 156 170 175 170 177 191 203 207 215 222 214 211 178 181 189 180 187 195 200 210 227 235 235
177 183 206 179 178 190 193 179 210 210 229 207 191 188 198 166 161 164 166 167 170 176 183 189 192 197 212 211 205 210 219 219 186 182 186 191 190 202 210 215 228 245 257
163 172 184 191 193 168 204 186 207 233 213 195 189 196 177 177 166 173 176 177 181 185 187 188 192 198 214 210 223 221 212 213 219 192 197 189 197 199 211 219 226 233 257
185 168 182 190 186 192 216 230 245 213 194 181 184 180 179 170 169 171 175 179 185 192 178 185 201 187 191 217 214 218 221 225 224 215 178 194 193 207 208 218 224 220 267
169 170 179 182 206 215 222 226 138 193 216 176 172 164 165 166 164 160 165 174 173 169 175 168 178 201 212 193 198 224 230 227 213 228 184 189 181 183 207 215 211 207 225
159 164 182 179 210 221 223 202 129 206 207 205 160 162 165 168 161 152 162 175 173 170 174 171 186 165 185 198 210 246 244 242 237 177 205 151 157 162 190 208 198 195 230
156 180 178 198 218 231 207 283 142 170 208 221 182 166 166 169 162 159 160 177 174 172 176 172 162 188 163 202 223 236 230 209 182 170 87 147 137 144 151 140 150 167 196
174 180 170 206 218 216 188 182 204 150 179 199 213 177 164 166 160 155 161 151 152 164 172 170 169 185 210 173 111 313 234 236 209 186 155 163 144 151 137 144 156 162 152
68 198 195 206 206 212 190 198 98 146 151 202 201 224 239 169 170 174 160 155 147 133 136 137 141 128 178 188 166 128 260 314 310 228 162 183 151 145 131 135 155 155 144
52 13 272 199 212 153 127 89 121 103 113 117 165 94 30 356 140 155 174 180 162 171 186 185 172 172 169 151 163 164 142 219 340 5 181 178 151 143 155 144 158 159 163
27 4 23 307 187 128 96 94 85 113 117 119 122 129 132 72 4 357 266 201 187 173 189 184 183 175 177 211 198 199 143 136 118 341 327 223 173 144 171 182 156 154 154
33 21 5 352 40 97 111 74 56 93 103 91 98 159 157 178 190 266 267 263 245 207 214 224 256 218 197 170 181 187 152 137 110 144 256 319 78 98 175 207 174 160 151
30 17 343 8 25 31 28 8 320 209 190 165 162 194 206 203 199 198 209 221 247 273 221 220 208 214 230 229 184 175 166 166 174 165 158 227 290 289 263 237 189 162 156